Time,TemperatureF,DewpointF,PressureIn,WindDirection,WindDirectionDegrees,WindSpeedMPH,WindSpeedGustMPH,Humidity,HourlyPrecipIn,Conditions,Clouds,dailyrainin,SoftwareType,DateUTC
2013-04-30 00:00:00,61.4,49.9,29.81,NNE,23,0.0,0.0,66,0.00,,,0.00,Wunderground v.1.13,2013-04-30 07:00:00,
2013-04-30 00:05:00,61.3,49.8,29.81,NNE,23,0.0,0.0,66,0.00,,,0.00,Wunderground v.1.13,2013-04-30 07:05:00,
2013-04-30 00:15:00,61.1,50.1,29.81,NNE,23,0.0,0.0,67,0.00,,,0.00,Wunderground v.1.13,2013-04-30 07:15:00,
2013-04-30 00:25:00,60.9,49.9,29.81,NNE,23,0.0,0.0,67,0.00,,,0.00,Wunderground v.1.13,2013-04-30 07:25:00,
2013-04-30 00:35:00,60.6,49.6,29.81,NNE,23,0.0,0.0,67,0.00,,,0.00,Wunderground v.1.13,2013-04-30 07:35:00,
2013-04-30 00:45:00,60.3,49.7,29.81,NNE,23,0.0,0.0,68,0.00,,,0.00,Wunderground v.1.13,2013-04-30 07:45:00,
2013-04-30 00:55:00,60.0,49.4,29.81,NNE,23,0.0,0.0,68,0.00,,,0.00,Wunderground v.1.13,2013-04-30 07:55:00,
2013-04-30 01:00:00,59.7,49.1,29.82,NNE,23,0.0,0.0,68,0.00,,,0.00,Wunderground v.1.13,2013-04-30 08:00:00,
2013-04-30 01:05:00,59.6,49.4,29.82,NNE,23,0.0,0.0,69,0.00,,,0.00,Wunderground v.1.13,2013-04-30 08:05:00,
2013-04-30 01:15:00,59.1,48.9,29.82,NNE,23,0.0,0.0,69,0.00,,,0.00,Wunderground v.1.13,2013-04-30 08:15:00,
2013-04-30 01:25:00,59.0,49.2,29.81,NNE,23,0.0,0.0,70,0.00,,,0.00,Wunderground v.1.13,2013-04-30 08:25:00,
2013-04-30 01:35:00,58.9,49.5,29.81,NNE,23,0.0,0.0,71,0.00,,,0.00,Wunderground v.1.13,2013-04-30 08:35:00,
2013-04-30 01:45:00,58.6,49.2,29.81,NNE,23,0.0,0.0,71,0.00,,,0.00,Wunderground v.1.13,2013-04-30 08:45:00,
2013-04-30 01:55:00,58.3,48.9,29.81,NNE,23,0.0,0.0,71,0.00,,,0.00,Wunderground v.1.13,2013-04-30 08:55:00,
2013-04-30 02:05:00,58.0,49.0,29.81,NNE,23,0.0,0.0,72,0.00,,,0.00,Wunderground v.1.13,2013-04-30 09:05:00,
2013-04-30 02:15:00,57.8,49.2,29.81,NNE,23,0.0,0.0,73,0.00,,,0.00,Wunderground v.1.13,2013-04-30 09:15:00,
2013-04-30 02:25:00,57.6,49.0,29.81,NNE,23,0.0,0.0,73,0.00,,,0.00,Wunderground v.1.13,2013-04-30 09:25:00,
2013-04-30 02:35:00,57.4,49.2,29.81,NNE,23,0.0,0.0,74,0.00,,,0.00,Wunderground v.1.13,2013-04-30 09:35:00,
2013-04-30 02:45:00,57.2,49.3,29.81,NNE,23,0.0,0.0,75,0.00,,,0.00,Wunderground v.1.13,2013-04-30 09:45:00,
2013-04-30 02:55:00,57.0,49.2,29.81,NNE,23,0.0,0.0,75,0.00,,,0.00,Wunderground v.1.13,2013-04-30 09:55:00,
2013-04-30 03:00:00,56.9,49.1,29.81,NNE,23,0.0,0.0,75,0.00,,,0.00,Wunderground v.1.13,2013-04-30 10:00:00,
2013-04-30 03:05:00,56.7,48.9,29.81,NNE,23,0.0,0.0,75,0.00,,,0.00,Wunderground v.1.13,2013-04-30 10:05:00,
2013-04-30 03:15:00,56.5,49.0,29.80,NNE,23,0.0,0.0,76,0.00,,,0.00,Wunderground v.1.13,2013-04-30 10:15:00,
2013-04-30 03:25:00,56.3,49.2,29.80,NNE,23,0.0,0.0,77,0.00,,,0.00,Wunderground v.1.13,2013-04-30 10:25:00,
2013-04-30 03:35:00,56.1,49.0,29.81,NNE,23,0.0,0.0,77,0.00,,,0.00,Wunderground v.1.13,2013-04-30 10:35:00,
2013-04-30 03:45:00,55.9,49.1,29.81,NNE,23,0.0,0.0,78,0.00,,,0.00,Wunderground v.1.13,2013-04-30 10:45:00,
2013-04-30 03:55:00,55.7,48.9,29.81,NNE,23,0.0,0.0,78,0.00,,,0.00,Wunderground v.1.13,2013-04-30 10:55:00,
2013-04-30 04:05:00,55.5,49.1,29.81,NNE,23,0.0,0.0,79,0.00,,,0.00,Wunderground v.1.13,2013-04-30 11:05:00,
2013-04-30 04:15:00,55.3,48.9,29.81,NNE,23,0.0,0.0,79,0.00,,,0.00,Wunderground v.1.13,2013-04-30 11:15:00,
2013-04-30 04:25:00,55.1,49.0,29.82,NNE,23,0.0,0.0,80,0.00,,,0.00,Wunderground v.1.13,2013-04-30 11:25:00,
2013-04-30 04:30:00,55.1,49.0,29.82,NNE,23,0.0,0.0,80,0.00,,,0.00,Wunderground v.1.13,2013-04-30 11:30:00,
2013-04-30 04:40:00,55.0,49.3,29.81,NNE,23,1.0,1.0,81,0.00,,,0.00,Wunderground v.1.13,2013-04-30 11:40:00,
2013-04-30 04:50:00,54.8,49.1,29.81,NNE,23,0.0,0.0,81,0.00,,,0.00,Wunderground v.1.13,2013-04-30 11:50:00,
2013-04-30 05:00:00,54.8,49.4,29.81,NNE,23,0.0,0.0,82,0.00,,,0.00,Wunderground v.1.13,2013-04-30 12:00:00,
2013-04-30 05:05:00,54.7,49.3,29.81,NNE,23,0.0,3.0,82,0.00,,,0.00,Wunderground v.1.13,2013-04-30 12:05:00,
2013-04-30 05:15:00,54.6,49.5,29.81,NNE,26,0.0,1.0,83,0.00,,,0.00,Wunderground v.1.13,2013-04-30 12:15:00,
2013-04-30 05:25:00,54.5,49.4,29.81,NNE,26,0.0,1.0,83,0.00,,,0.00,Wunderground v.1.13,2013-04-30 12:25:00,
2013-04-30 05:35:00,54.4,49.3,29.81,NNE,27,0.0,1.0,83,0.00,,,0.00,Wunderground v.1.13,2013-04-30 12:35:00,
2013-04-30 05:45:00,54.3,49.2,29.81,NNE,27,0.0,1.0,83,0.00,,,0.00,Wunderground v.1.13,2013-04-30 12:45:00,
2013-04-30 05:50:00,54.2,49.5,29.81,NNE,27,0.0,1.0,84,0.00,,,0.00,Wunderground v.1.13,2013-04-30 12:50:00,
2013-04-30 06:00:00,54.1,49.1,29.82,North,32767,-999.0,1.0,83,0.00,,,0.00,Wunderground v.1.13,2013-04-30 13:00:00,
2013-04-30 06:05:00,54.0,49.3,29.82,North,32767,-999.0,0.0,84,0.00,,,0.00,Wunderground v.1.13,2013-04-30 13:05:00,
2013-04-30 06:15:00,53.8,49.1,29.82,North,32767,-999.0,0.0,84,0.00,,,0.00,Wunderground v.1.13,2013-04-30 13:15:00,
2013-04-30 06:25:00,53.7,49.0,29.82,North,32767,-999.0,0.0,84,0.00,,,0.00,Wunderground v.1.13,2013-04-30 13:25:00,
2013-04-30 06:30:00,53.6,48.9,29.82,North,32767,-999.0,0.0,84,0.00,,,0.00,Wunderground v.1.13,2013-04-30 13:30:00,
2013-04-30 06:40:00,53.6,49.2,29.83,North,32767,-999.0,0.0,85,0.00,,,0.00,Wunderground v.1.13,2013-04-30 13:40:00,
2013-04-30 06:50:00,53.6,49.2,29.84,North,32767,-999.0,0.0,85,0.00,,,0.00,Wunderground v.1.13,2013-04-30 13:50:00,
2013-04-30 07:00:00,53.6,49.2,29.84,North,32767,-999.0,0.0,85,0.00,,,0.00,Wunderground v.1.13,2013-04-30 14:00:00,
2013-04-30 07:05:00,53.7,49.6,29.84,North,32767,-999.0,0.0,86,0.00,,,0.00,Wunderground v.1.13,2013-04-30 14:05:00,
2013-04-30 07:15:00,54.0,49.9,29.85,North,32767,-999.0,0.0,86,0.00,,,0.00,Wunderground v.1.13,2013-04-30 14:15:00,
2013-04-30 07:25:00,54.4,50.6,29.85,North,32767,-999.0,0.0,87,0.00,,,0.00,Wunderground v.1.13,2013-04-30 14:25:00,
2013-04-30 07:35:00,55.1,51.3,29.85,North,32767,-999.0,0.0,87,0.00,,,0.00,Wunderground v.1.13,2013-04-30 14:35:00,
2013-04-30 07:45:00,55.8,52.3,29.85,North,32767,-999.0,0.0,88,0.00,,,0.00,Wunderground v.1.13,2013-04-30 14:45:00,
2013-04-30 07:55:00,56.3,52.5,29.85,North,32767,-999.0,0.0,87,0.00,,,0.00,Wunderground v.1.13,2013-04-30 14:55:00,
2013-04-30 08:05:00,56.9,53.1,29.86,North,32767,-999.0,0.0,87,0.00,,,0.00,Wunderground v.1.13,2013-04-30 15:05:00,
2013-04-30 08:15:00,57.5,53.7,29.86,North,32767,-999.0,0.0,87,0.00,,,0.00,Wunderground v.1.13,2013-04-30 15:15:00,
2013-04-30 08:25:00,58.2,54.0,29.85,North,32767,-999.0,0.0,86,0.00,,,0.00,Wunderground v.1.13,2013-04-30 15:25:00,
2013-04-30 08:35:00,59.0,54.5,29.84,North,32767,-999.0,0.0,85,0.00,,,0.00,Wunderground v.1.13,2013-04-30 15:35:00,
2013-04-30 08:45:00,59.5,54.7,29.84,North,32767,-999.0,0.0,84,0.00,,,0.00,Wunderground v.1.13,2013-04-30 15:45:00,
2013-04-30 08:55:00,60.3,54.8,29.84,North,32767,-999.0,0.0,82,0.00,,,0.00,Wunderground v.1.13,2013-04-30 15:55:00,
2013-04-30 09:05:00,61.0,54.8,29.84,North,32767,-999.0,0.0,80,0.00,,,0.00,Wunderground v.1.13,2013-04-30 16:05:00,
2013-04-30 09:15:00,61.9,55.3,29.84,North,32767,-999.0,0.0,79,0.00,,,0.00,Wunderground v.1.13,2013-04-30 16:15:00,
2013-04-30 09:20:00,62.3,55.0,29.84,North,32767,-999.0,0.0,77,0.00,,,0.00,Wunderground v.1.13,2013-04-30 16:20:00,
2013-04-30 09:30:00,63.0,55.3,29.84,North,32767,-999.0,0.0,76,0.00,,,0.00,Wunderground v.1.13,2013-04-30 16:30:00,
2013-04-30 09:40:00,63.7,54.9,29.85,North,32767,-999.0,0.0,73,0.00,,,0.00,Wunderground v.1.13,2013-04-30 16:40:00,
2013-04-30 09:50:00,64.4,55.2,29.85,North,32767,-999.0,0.0,72,0.00,,,0.00,Wunderground v.1.13,2013-04-30 16:50:00,
2013-04-30 10:00:00,65.2,55.6,29.86,North,32767,-999.0,0.0,71,0.00,,,0.00,Wunderground v.1.13,2013-04-30 17:00:00,
2013-04-30 10:05:00,65.6,55.5,29.86,NE,50,4.0,6.0,70,0.00,,,0.00,Wunderground v.1.13,2013-04-30 17:05:00,
2013-04-30 10:15:00,66.3,55.8,29.86,North,5,4.0,6.0,69,0.00,,,0.00,Wunderground v.1.13,2013-04-30 17:15:00,
2013-04-30 10:25:00,66.9,56.0,29.86,NE,34,2.0,6.0,68,0.00,,,0.00,Wunderground v.1.13,2013-04-30 17:25:00,
2013-04-30 10:35:00,67.9,54.0,29.86,West,271,1.0,6.0,61,0.00,,,0.00,Wunderground v.1.13,2013-04-30 17:35:00,
2013-04-30 10:45:00,69.8,53.9,29.86,WSW,248,1.0,6.0,57,0.00,,,0.00,Wunderground v.1.13,2013-04-30 17:45:00,
2013-04-30 10:55:00,70.6,52.1,29.86,North,355,2.0,2.0,52,0.00,,,0.00,Wunderground v.1.13,2013-04-30 17:55:00,
2013-04-30 11:05:00,71.3,53.3,29.86,NW,304,2.0,7.0,53,0.00,,,0.00,Wunderground v.1.13,2013-04-30 18:05:00,
2013-04-30 11:15:00,71.9,53.3,29.86,NNW,330,0.0,7.0,52,0.00,,,0.00,Wunderground v.1.13,2013-04-30 18:15:00,
2013-04-30 11:20:00,72.3,52.6,29.86,WSW,244,1.0,7.0,50,0.00,,,0.00,Wunderground v.1.13,2013-04-30 18:20:00,
2013-04-30 11:30:00,74.0,54.2,29.86,North,5,2.0,2.0,50,0.00,,,0.00,Wunderground v.1.13,2013-04-30 18:30:00,
2013-04-30 11:40:00,74.4,54.0,29.85,NNE,22,2.0,7.0,49,0.00,,,0.00,Wunderground v.1.13,2013-04-30 18:40:00,
2013-04-30 11:50:00,76.2,53.9,29.85,NNW,344,1.0,1.0,46,0.00,,,0.00,Wunderground v.1.13,2013-04-30 18:50:00,
2013-04-30 12:00:00,76.1,52.6,29.85,North,355,2.0,2.0,44,0.00,,,0.00,Wunderground v.1.13,2013-04-30 19:00:00,
2013-04-30 12:05:00,75.7,52.2,29.85,North,355,3.0,3.0,44,0.00,,,0.00,Wunderground v.1.13,2013-04-30 19:05:00,
2013-04-30 12:15:00,76.7,50.6,29.85,NNE,22,1.0,6.0,40,0.00,,,0.00,Wunderground v.1.13,2013-04-30 19:15:00,
2013-04-30 12:25:00,78.2,49.1,29.85,West,273,1.0,6.0,36,0.00,,,0.00,Wunderground v.1.13,2013-04-30 19:25:00,
2013-04-30 12:35:00,77.9,48.0,29.85,NNE,26,2.0,6.0,35,0.00,,,0.00,Wunderground v.1.13,2013-04-30 19:35:00,
2013-04-30 12:40:00,78.2,49.1,29.84,NW,319,2.0,6.0,36,0.00,,,0.00,Wunderground v.1.13,2013-04-30 19:40:00,
2013-04-30 12:50:00,78.5,46.2,29.84,NNE,14,2.0,6.0,32,0.00,,,0.00,Wunderground v.1.13,2013-04-30 19:50:00,
2013-04-30 13:00:00,78.7,45.5,29.84,NNE,13,3.0,3.0,31,0.00,,,0.00,Wunderground v.1.13,2013-04-30 20:00:00,
2013-04-30 13:05:00,79.3,48.5,29.83,NW,320,2.0,2.0,34,0.00,,,0.00,Wunderground v.1.13,2013-04-30 20:05:00,
2013-04-30 13:15:00,80.1,48.4,29.83,NNW,333,1.0,1.0,33,0.00,,,0.00,Wunderground v.1.13,2013-04-30 20:15:00,
2013-04-30 13:20:00,79.6,47.1,29.83,North,355,2.0,9.0,32,0.00,,,0.00,Wunderground v.1.13,2013-04-30 20:20:00,
2013-04-30 13:30:00,80.0,45.8,29.83,WSW,248,2.0,9.0,30,0.00,,,0.00,Wunderground v.1.13,2013-04-30 20:30:00,
2013-04-30 13:40:00,80.8,48.2,29.83,WSW,249,2.0,2.0,32,0.00,,,0.00,Wunderground v.1.13,2013-04-30 20:40:00,
2013-04-30 13:50:00,80.5,47.1,29.83,NE,42,3.0,3.0,31,0.00,,,0.00,Wunderground v.1.13,2013-04-30 20:50:00,
2013-04-30 14:00:00,81.0,46.6,29.83,NW,323,1.0,9.0,30,0.00,,,0.00,Wunderground v.1.13,2013-04-30 21:00:00,
2013-04-30 14:05:00,81.4,46.1,29.82,North,9,2.0,10.0,29,0.00,,,0.00,Wunderground v.1.13,2013-04-30 21:05:00,
2013-04-30 14:15:00,82.0,46.6,29.82,WSW,240,1.0,10.0,29,0.00,,,0.00,Wunderground v.1.13,2013-04-30 21:15:00,
2013-04-30 14:25:00,82.3,45.9,29.82,North,5,2.0,10.0,28,0.00,,,0.00,Wunderground v.1.13,2013-04-30 21:25:00,
2013-04-30 14:35:00,82.2,47.7,29.82,SW,233,2.0,2.0,30,0.00,,,0.00,Wunderground v.1.13,2013-04-30 21:35:00,
2013-04-30 14:40:00,82.0,44.7,29.82,NNE,22,4.0,10.0,27,0.00,,,0.00,Wunderground v.1.13,2013-04-30 21:40:00,
2013-04-30 14:50:00,82.4,46.9,29.81,NE,40,2.0,2.0,29,0.00,,,0.00,Wunderground v.1.13,2013-04-30 21:50:00,
2013-04-30 15:00:00,83.4,44.9,29.81,NE,35,2.0,2.0,26,0.00,,,0.00,Wunderground v.1.13,2013-04-30 22:00:00,
2013-04-30 15:05:00,82.7,45.3,29.81,WSW,244,1.0,6.0,27,0.00,,,0.00,Wunderground v.1.13,2013-04-30 22:05:00,
2013-04-30 15:15:00,83.2,43.7,29.81,NNE,24,2.0,6.0,25,0.00,,,0.00,Wunderground v.1.13,2013-04-30 22:15:00,
2013-04-30 15:25:00,83.1,44.7,29.81,NNE,24,3.0,3.0,26,0.00,,,0.00,Wunderground v.1.13,2013-04-30 22:25:00,
2013-04-30 15:35:00,83.7,44.1,29.80,North,5,1.0,6.0,25,0.00,,,0.00,Wunderground v.1.13,2013-04-30 22:35:00,
2013-04-30 15:45:00,83.6,45.1,29.80,NNW,342,1.0,1.0,26,0.00,,,0.00,Wunderground v.1.13,2013-04-30 22:45:00,
2013-04-30 15:55:00,83.5,45.0,29.80,NNW,348,3.0,6.0,26,0.00,,,0.00,Wunderground v.1.13,2013-04-30 22:55:00,
2013-04-30 16:05:00,83.3,45.8,29.80,NE,34,2.0,12.0,27,0.00,,,0.00,Wunderground v.1.13,2013-04-30 23:05:00,
2013-04-30 16:15:00,83.5,45.0,29.80,NNW,348,1.0,12.0,26,0.00,,,0.00,Wunderground v.1.13,2013-04-30 23:15:00,
2013-04-30 16:25:00,83.3,43.8,29.79,North,355,3.0,3.0,25,0.00,,,0.00,Wunderground v.1.13,2013-04-30 23:25:00,
2013-04-30 16:35:00,83.5,46.0,29.79,North,360,2.0,12.0,27,0.00,,,0.00,Wunderground v.1.13,2013-04-30 23:35:00,
2013-04-30 16:45:00,83.1,44.7,29.79,North,5,2.0,2.0,26,0.00,,,0.00,Wunderground v.1.13,2013-04-30 23:45:00,
2013-04-30 16:55:00,83.1,44.7,29.79,North,9,3.0,12.0,26,0.00,,,0.00,Wunderground v.1.13,2013-04-30 23:55:00,
2013-04-30 17:05:00,83.2,45.7,29.79,NE,40,3.0,3.0,27,0.00,,,0.00,Wunderground v.1.13,2013-05-01 00:05:00,
2013-04-30 17:15:00,82.6,45.2,29.79,WNW,302,2.0,11.0,27,0.00,,,0.00,Wunderground v.1.13,2013-05-01 00:15:00,
2013-04-30 17:20:00,82.4,45.1,29.79,NNE,31,1.0,11.0,27,0.00,,,0.00,Wunderground v.1.13,2013-05-01 00:20:00,
2013-04-30 17:25:00,82.2,45.8,29.79,NNW,336,1.0,11.0,28,0.00,,,0.00,Wunderground v.1.13,2013-05-01 00:25:00,
2013-04-30 17:35:00,81.3,44.1,29.79,NNE,22,3.0,3.0,27,0.00,,,0.00,Wunderground v.1.13,2013-05-01 00:35:00,
2013-04-30 17:45:00,81.6,43.4,29.79,NNW,337,1.0,11.0,26,0.00,,,0.00,Wunderground v.1.13,2013-05-01 00:45:00,
2013-04-30 17:50:00,81.2,43.0,29.79,North,5,1.0,11.0,26,0.00,,,0.00,Wunderground v.1.13,2013-05-01 00:50:00,
2013-04-30 18:00:00,80.3,43.3,29.79,NNE,23,5.0,11.0,27,0.00,,,0.00,Wunderground v.1.13,2013-05-01 01:00:00,
2013-04-30 18:05:00,80.0,44.0,29.79,NE,47,4.0,10.0,28,0.00,,,0.00,Wunderground v.1.13,2013-05-01 01:05:00,
2013-04-30 18:15:00,79.8,44.7,29.79,North,5,2.0,2.0,29,0.00,,,0.00,Wunderground v.1.13,2013-05-01 01:15:00,
2013-04-30 18:25:00,79.6,44.5,29.80,NNE,28,2.0,2.0,29,0.00,,,0.00,Wunderground v.1.13,2013-05-01 01:25:00,
2013-04-30 18:35:00,79.2,52.1,29.80,NNE,16,2.0,2.0,39,0.00,,,0.00,Wunderground v.1.13,2013-05-01 01:35:00,
2013-04-30 18:45:00,77.7,52.8,29.80,NNW,347,2.0,10.0,42,0.00,,,0.00,Wunderground v.1.13,2013-05-01 01:45:00,
2013-04-30 18:55:00,76.0,53.7,29.80,ENE,67,2.0,2.0,46,0.00,,,0.00,Wunderground v.1.13,2013-05-01 01:55:00,
2013-04-30 19:05:00,74.8,53.8,29.80,North,5,0.0,3.0,48,0.00,,,0.00,Wunderground v.1.13,2013-05-01 02:05:00,
2013-04-30 19:15:00,73.8,54.5,29.81,NNE,17,0.0,3.0,51,0.00,,,0.00,Wunderground v.1.13,2013-05-01 02:15:00,
2013-04-30 19:25:00,72.4,53.8,29.81,NNE,17,0.0,3.0,52,0.00,,,0.00,Wunderground v.1.13,2013-05-01 02:25:00,
2013-04-30 19:35:00,71.1,54.1,29.81,NNE,28,0.0,3.0,55,0.00,,,0.00,Wunderground v.1.13,2013-05-01 02:35:00,
2013-04-30 19:45:00,69.9,53.5,29.81,NE,40,0.0,3.0,56,0.00,,,0.00,Wunderground v.1.13,2013-05-01 02:45:00,
2013-04-30 19:55:00,69.1,53.7,29.82,NE,42,1.0,3.0,58,0.00,,,0.00,Wunderground v.1.13,2013-05-01 02:55:00,
2013-04-30 20:05:00,68.3,53.4,29.82,NNE,26,1.0,1.0,59,0.00,,,0.00,Wunderground v.1.13,2013-05-01 03:05:00,
2013-04-30 20:15:00,67.9,52.6,29.82,NNE,15,2.0,2.0,58,0.00,,,0.00,Wunderground v.1.13,2013-05-01 03:15:00,
2013-04-30 20:25:00,67.5,52.2,29.82,NNE,15,1.0,1.0,58,0.00,,,0.00,Wunderground v.1.13,2013-05-01 03:25:00,
2013-04-30 20:35:00,67.0,50.8,29.83,NNE,15,0.0,5.0,56,0.00,,,0.00,Wunderground v.1.13,2013-05-01 03:35:00,
2013-04-30 20:45:00,66.6,50.9,29.83,WSW,241,1.0,5.0,57,0.00,,,0.00,Wunderground v.1.13,2013-05-01 03:45:00,
2013-04-30 20:50:00,66.4,51.2,29.83,WSW,241,2.0,5.0,58,0.00,,,0.00,Wunderground v.1.13,2013-05-01 03:50:00,
2013-04-30 21:00:00,66.0,50.8,29.83,WSW,240,1.0,1.0,58,0.00,,,0.00,Wunderground v.1.13,2013-05-01 04:00:00,
2013-04-30 21:05:00,65.8,50.6,29.83,WSW,240,0.0,0.0,58,0.00,,,0.00,Wunderground v.1.13,2013-05-01 04:05:00,
2013-04-30 21:10:00,65.7,51.0,29.83,WSW,240,0.0,0.0,59,0.00,,,0.00,Wunderground v.1.13,2013-05-01 04:10:00,
2013-04-30 21:15:00,65.6,50.9,29.83,WSW,240,0.0,0.0,59,0.00,,,0.00,Wunderground v.1.13,2013-05-01 04:15:00,
2013-04-30 21:25:00,65.3,50.6,29.84,WSW,240,0.0,0.0,59,0.00,,,0.00,Wunderground v.1.13,2013-05-01 04:25:00,
2013-04-30 21:30:00,65.1,50.4,29.84,WSW,240,0.0,0.0,59,0.00,,,0.00,Wunderground v.1.13,2013-05-01 04:30:00,
2013-04-30 21:35:00,64.9,50.7,29.84,WSW,240,0.0,0.0,60,0.00,,,0.00,Wunderground v.1.13,2013-05-01 04:35:00,
2013-04-30 21:45:00,64.5,50.3,29.84,WSW,240,0.0,0.0,60,0.00,,,0.00,Wunderground v.1.13,2013-05-01 04:45:00,
2013-04-30 21:55:00,64.1,49.9,29.84,WSW,240,0.0,0.0,60,0.00,,,0.00,Wunderground v.1.13,2013-05-01 04:55:00,
2013-04-30 22:05:00,63.7,50.0,29.84,WSW,240,0.0,0.0,61,0.00,,,0.00,Wunderground v.1.13,2013-05-01 05:05:00,
2013-04-30 22:15:00,63.2,49.5,29.84,WSW,240,0.0,0.0,61,0.00,,,0.00,Wunderground v.1.13,2013-05-01 05:15:00,
2013-04-30 22:25:00,62.8,49.6,29.84,WSW,240,0.0,0.0,62,0.00,,,0.00,Wunderground v.1.13,2013-05-01 05:25:00,
2013-04-30 22:35:00,62.4,49.2,29.84,WSW,240,0.0,0.0,62,0.00,,,0.00,Wunderground v.1.13,2013-05-01 05:35:00,
2013-04-30 22:45:00,62.0,48.8,29.84,WSW,240,0.0,0.0,62,0.00,,,0.00,Wunderground v.1.13,2013-05-01 05:45:00,
2013-04-30 22:50:00,61.8,48.6,29.84,WSW,240,0.0,0.0,62,0.00,,,0.00,Wunderground v.1.13,2013-05-01 05:50:00,
2013-04-30 23:00:00,61.4,47.8,29.84,WSW,240,0.0,0.0,61,0.00,,,0.00,Wunderground v.1.13,2013-05-01 06:00:00,
2013-04-30 23:05:00,61.2,47.6,29.85,WSW,240,0.0,0.0,61,0.00,,,0.00,Wunderground v.1.13,2013-05-01 06:05:00,
2013-04-30 23:15:00,60.8,47.7,29.85,WSW,240,0.0,0.0,62,0.00,,,0.00,Wunderground v.1.13,2013-05-01 06:15:00,
2013-04-30 23:25:00,60.5,47.4,29.85,WSW,240,0.0,0.0,62,0.00,,,0.00,Wunderground v.1.13,2013-05-01 06:25:00,
2013-04-30 23:30:00,60.3,47.2,29.85,WSW,240,0.0,0.0,62,0.00,,,0.00,Wunderground v.1.13,2013-05-01 06:30:00,
2013-04-30 23:40:00,60.0,46.9,29.85,WSW,240,0.0,0.0,62,0.00,,,0.00,Wunderground v.1.13,2013-05-01 06:40:00,
2013-04-30 23:50:00,59.8,46.7,29.85,WSW,240,0.0,0.0,62,0.00,,,0.00,Wunderground v.1.13,2013-05-01 06:50:00,